Time,TemperatureF,DewpointF,PressureIn,WindDirection,WindDirectionDegrees,WindSpeedMPH,WindSpeedGustMPH,Humidity,HourlyPrecipIn,Conditions,Clouds,dailyrainin,SoftwareType,DateUTC
2013-02-18 00:09:00,-8.7,-13.0,30.25,ESE,106,0.0,0.0,80,0.00,,,0.00,weatherlink.com 1.10,2013-02-18 09:09:00,
2013-02-18 00:24:00,-9.1,-14.0,30.25,WNW,284,0.0,0.0,79,0.00,,,0.00,weatherlink.com 1.10,2013-02-18 09:24:00,
2013-02-18 00:39:00,-9.3,-14.0,30.25,SSE,162,0.0,0.0,79,0.00,,,0.00,weatherlink.com 1.10,2013-02-18 09:39:00,
2013-02-18 00:54:00,-9.7,-15.0,30.26,SE,127,0.0,0.0,78,0.00,,,0.00,weatherlink.com 1.10,2013-02-18 09:54:00,
2013-02-18 01:10:00,-10.2,-15.0,30.26,WSW,255,0.0,0.0,79,0.00,,,0.00,weatherlink.com 1.10,2013-02-18 10:10:00,
2013-02-18 01:25:00,-10.5,-16.0,30.26,WSW,252,0.0,0.0,78,0.00,,,0.00,weatherlink.com 1.10,2013-02-18 10:25:00,
2013-02-18 01:40:00,-11.1,-16.0,30.27,WSW,252,0.0,0.0,79,0.00,,,0.00,weatherlink.com 1.10,2013-02-18 10:40:00,
2013-02-18 01:55:00,-11.8,-17.0,30.27,WSW,252,0.0,0.0,78,0.00,,,0.00,weatherlink.com 1.10,2013-02-18 10:55:00,
2013-02-18 02:10:00,-12.9,-18.0,30.27,WSW,253,0.0,0.0,78,0.00,,,0.00,weatherlink.com 1.10,2013-02-18 11:10:00,
2013-02-18 02:25:00,-13.7,-19.0,30.28,WSW,253,0.0,0.0,78,0.00,,,0.00,weatherlink.com 1.10,2013-02-18 11:25:00,
2013-02-18 02:40:00,-14.4,-19.0,30.28,WSW,253,0.0,0.0,78,0.00,,,0.00,weatherlink.com 1.10,2013-02-18 11:40:00,
2013-02-18 02:55:00,-15.2,-20.0,30.29,WSW,253,0.0,0.0,78,0.00,,,0.00,weatherlink.com 1.10,2013-02-18 11:55:00,
2013-02-18 03:10:00,-15.5,-20.0,30.29,WSW,253,0.0,0.0,78,0.00,,,0.00,weatherlink.com 1.10,2013-02-18 12:10:00,
2013-02-18 03:25:00,-15.8,-20.0,30.29,WSW,253,0.0,0.0,79,0.00,,,0.00,weatherlink.com 1.10,2013-02-18 12:25:00,
2013-02-18 03:40:00,-15.3,-20.0,30.29,WSW,253,0.0,0.0,80,0.00,,,0.00,weatherlink.com 1.10,2013-02-18 12:40:00,
2013-02-18 03:55:00,-15.2,-20.0,30.30,WSW,253,0.0,0.0,79,0.00,,,0.00,weatherlink.com 1.10,2013-02-18 12:55:00,
2013-02-18 04:10:00,-15.7,-21.0,30.30,WSW,253,0.0,0.0,78,0.00,,,0.00,weatherlink.com 1.10,2013-02-18 13:10:00,
2013-02-18 04:26:00,-16.7,-22.0,30.30,WSW,253,0.0,0.0,78,0.00,,,0.00,weatherlink.com 1.10,2013-02-18 13:26:00,
2013-02-18 04:41:00,-17.6,-22.0,30.30,WSW,253,0.0,0.0,78,0.00,,,0.00,weatherlink.com 1.10,2013-02-18 13:41:00,
2013-02-18 04:56:00,-18.2,-23.0,30.30,WSW,253,0.0,0.0,77,0.00,,,0.00,weatherlink.com 1.10,2013-02-18 13:56:00,
2013-02-18 05:11:00,-18.9,-24.0,30.30,WSW,253,0.0,0.0,78,0.00,,,0.00,weatherlink.com 1.10,2013-02-18 14:11:00,
2013-02-18 05:26:00,-19.2,-24.0,30.30,WSW,253,0.0,0.0,78,0.00,,,0.00,weatherlink.com 1.10,2013-02-18 14:26:00,
2013-02-18 05:41:00,-19.4,-24.0,30.31,WSW,253,0.0,0.0,78,0.00,,,0.00,weatherlink.com 1.10,2013-02-18 14:41:00,
2013-02-18 06:11:00,-20.4,-25.0,30.31,WSW,253,0.0,0.0,78,0.00,,,0.00,weatherlink.com 1.10,2013-02-18 15:11:00,
2013-02-18 06:26:00,-20.9,-26.0,30.31,WSW,253,0.0,0.0,77,0.00,,,0.00,weatherlink.com 1.10,2013-02-18 15:26:00,
2013-02-18 06:41:00,-21.1,-26.0,30.31,WSW,253,0.0,0.0,78,0.00,,,0.00,weatherlink.com 1.10,2013-02-18 15:41:00,
2013-02-18 06:56:00,-21.0,-26.0,30.32,WSW,253,0.0,0.0,78,0.00,,,0.00,weatherlink.com 1.10,2013-02-18 15:56:00,
2013-02-18 07:11:00,-21.3,-26.0,30.31,WSW,253,0.0,0.0,78,0.00,,,0.00,weatherlink.com 1.10,2013-02-18 16:11:00,
2013-02-18 07:26:00,-21.4,-26.0,30.31,WSW,253,0.0,0.0,78,0.00,,,0.00,weatherlink.com 1.10,2013-02-18 16:26:00,
2013-02-18 07:41:00,-21.6,-26.0,30.31,WSW,253,0.0,0.0,78,0.00,,,0.00,weatherlink.com 1.10,2013-02-18 16:41:00,
2013-02-18 07:57:00,-21.6,-27.0,30.32,WSW,253,0.0,0.0,77,0.00,,,0.00,weatherlink.com 1.10,2013-02-18 16:57:00,
2013-02-18 08:12:00,-22.0,-27.0,30.32,WSW,253,0.0,0.0,77,0.00,,,0.00,weatherlink.com 1.10,2013-02-18 17:12:00,
2013-02-18 08:27:00,-21.8,-27.0,30.32,WSW,253,0.0,0.0,78,0.00,,,0.00,weatherlink.com 1.10,2013-02-18 17:27:00,
2013-02-18 08:42:00,-21.5,-26.0,30.32,WSW,253,0.0,0.0,79,0.00,,,0.00,weatherlink.com 1.10,2013-02-18 17:42:00,
2013-02-18 08:57:00,-21.4,-26.0,30.32,WSW,253,0.0,0.0,78,0.00,,,0.00,weatherlink.com 1.10,2013-02-18 17:57:00,
2013-02-18 09:12:00,-21.0,-26.0,30.32,WSW,253,0.0,0.0,77,0.00,,,0.00,weatherlink.com 1.10,2013-02-18 18:12:00,
2013-02-18 09:27:00,-20.9,-26.0,30.33,WSW,253,0.0,0.0,78,0.00,,,0.00,weatherlink.com 1.10,2013-02-18 18:27:00,
2013-02-18 09:42:00,-20.3,-25.0,30.33,WSW,253,0.0,0.0,79,0.00,,,0.00,weatherlink.com 1.10,2013-02-18 18:42:00,
2013-02-18 09:57:00,-19.8,-25.0,30.33,WSW,253,0.0,0.0,78,0.00,,,0.00,weatherlink.com 1.10,2013-02-18 18:57:00,
2013-02-18 10:12:00,-19.4,-24.0,30.33,WSW,253,0.0,0.0,79,0.00,,,0.00,weatherlink.com 1.10,2013-02-18 19:12:00,
2013-02-18 10:27:00,-19.1,-24.0,30.33,NNW,333,0.0,0.0,78,0.00,,,0.00,weatherlink.com 1.10,2013-02-18 19:27:00,
2013-02-18 10:42:00,-17.9,-23.0,30.34,NNE,23,0.0,0.0,79,0.00,,,0.00,weatherlink.com 1.10,2013-02-18 19:42:00,
2013-02-18 10:57:00,-16.6,-21.0,30.34,East,84,0.0,0.0,79,0.00,,,0.00,weatherlink.com 1.10,2013-02-18 19:57:00,
2013-02-18 11:12:00,-14.7,-19.0,30.34,East,86,0.0,0.0,79,0.00,,,0.00,weatherlink.com 1.10,2013-02-18 20:12:00,
2013-02-18 11:28:00,-13.1,-18.0,30.34,SE,124,0.0,0.0,77,0.00,,,0.00,weatherlink.com 1.10,2013-02-18 20:28:00,
2013-02-18 11:43:00,-12.0,-18.0,30.34,SSE,147,0.0,0.0,76,0.00,,,0.00,weatherlink.com 1.10,2013-02-18 20:43:00,
2013-02-18 11:58:00,-10.9,-17.0,30.34,SSE,156,0.0,0.0,74,0.00,,,0.00,weatherlink.com 1.10,2013-02-18 20:58:00,
2013-02-18 12:13:00,-10.8,-17.0,30.34,West,267,0.0,0.0,73,0.00,,,0.00,weatherlink.com 1.10,2013-02-18 21:13:00,
2013-02-18 12:28:00,-9.9,-17.0,30.34,SSE,162,0.0,0.0,72,0.00,,,0.00,weatherlink.com 1.10,2013-02-18 21:28:00,
2013-02-18 12:43:00,-9.1,-16.0,30.34,SSE,149,0.0,0.0,70,0.00,,,0.00,weatherlink.com 1.10,2013-02-18 21:43:00,
2013-02-18 12:58:00,-7.9,-15.0,30.34,WSW,240,0.0,0.0,71,0.00,,,0.00,weatherlink.com 1.10,2013-02-18 21:58:00,
2013-02-18 13:13:00,-7.2,-15.0,30.33,SE,133,0.0,0.0,69,0.00,,,0.00,weatherlink.com 1.10,2013-02-18 22:13:00,
2013-02-18 13:28:00,-7.6,-15.0,30.34,South,179,0.0,0.0,70,0.00,,,0.00,weatherlink.com 1.10,2013-02-18 22:28:00,
2013-02-18 13:43:00,-8.1,-15.0,30.33,SE,141,0.0,0.0,70,0.00,,,0.00,weatherlink.com 1.10,2013-02-18 22:43:00,
2013-02-18 13:58:00,-8.3,-15.0,30.33,SSE,152,0.0,0.0,71,0.00,,,0.00,weatherlink.com 1.10,2013-02-18 22:58:00,
2013-02-18 14:13:00,-8.3,-15.0,30.33,SE,124,0.0,0.0,71,0.00,,,0.00,weatherlink.com 1.10,2013-02-18 23:13:00,
2013-02-18 14:28:00,-8.1,-15.0,30.33,SSE,159,0.0,0.0,71,0.00,,,0.00,weatherlink.com 1.10,2013-02-18 23:28:00,
2013-02-18 14:43:00,-8.1,-15.0,30.32,SSE,162,0.0,0.0,71,0.00,,,0.00,weatherlink.com 1.10,2013-02-18 23:43:00,
2013-02-18 14:58:00,-8.3,-16.0,30.32,SW,232,0.0,0.0,70,0.00,,,0.00,weatherlink.com 1.10,2013-02-18 23:58:00,
2013-02-18 15:14:00,-8.7,-16.0,30.32,SE,145,0.0,0.0,71,0.00,,,0.00,weatherlink.com 1.10,2013-02-19 00:14:00,
2013-02-18 15:29:00,-9.1,-16.0,30.32,SE,131,0.0,0.0,72,0.00,,,0.00,weatherlink.com 1.10,2013-02-19 00:29:00,
2013-02-18 15:44:00,-9.4,-16.0,30.32,South,190,0.0,0.0,72,0.00,,,0.00,weatherlink.com 1.10,2013-02-19 00:44:00,
2013-02-18 15:59:00,-9.8,-17.0,30.31,SW,227,0.0,0.0,72,0.00,,,0.00,weatherlink.com 1.10,2013-02-19 00:59:00,
2013-02-18 16:14:00,-10.5,-17.0,30.31,SW,227,0.0,0.0,73,0.00,,,0.00,weatherlink.com 1.10,2013-02-19 01:14:00,
2013-02-18 16:29:00,-11.1,-17.0,30.31,West,264,0.0,0.0,74,0.00,,,0.00,weatherlink.com 1.10,2013-02-19 01:29:00,
2013-02-18 16:44:00,-11.7,-18.0,30.31,West,264,0.0,0.0,74,0.00,,,0.00,weatherlink.com 1.10,2013-02-19 01:44:00,
2013-02-18 16:59:00,-12.8,-19.0,30.30,West,264,0.0,0.0,74,0.00,,,0.00,weatherlink.com 1.10,2013-02-19 01:59:00,
2013-02-18 17:14:00,-14.1,-20.0,30.30,West,264,0.0,0.0,74,0.00,,,0.00,weatherlink.com 1.10,2013-02-19 02:14:00,
2013-02-18 17:29:00,-15.2,-21.0,30.30,West,264,0.0,0.0,74,0.00,,,0.00,weatherlink.com 1.10,2013-02-19 02:29:00,
2013-02-18 17:44:00,-16.5,-22.0,30.30,West,264,0.0,0.0,75,0.00,,,0.00,weatherlink.com 1.10,2013-02-19 02:44:00,
2013-02-18 17:59:00,-17.1,-23.0,30.30,West,264,0.0,0.0,76,0.00,,,0.00,weatherlink.com 1.10,2013-02-19 02:59:00,
2013-02-18 18:14:00,-17.5,-23.0,30.30,West,264,0.0,0.0,77,0.00,,,0.00,weatherlink.com 1.10,2013-02-19 03:14:00,
2013-02-18 18:30:00,-18.2,-24.0,30.30,West,264,0.0,0.0,76,0.00,,,0.00,weatherlink.com 1.10,2013-02-19 03:30:00,
2013-02-18 18:45:00,-18.6,-24.0,30.30,West,264,0.0,0.0,76,0.00,,,0.00,weatherlink.com 1.10,2013-02-19 03:45:00,
2013-02-18 19:00:00,-18.6,-23.0,30.30,West,264,0.0,0.0,79,0.00,,,0.00,weatherlink.com 1.10,2013-02-19 04:00:00,
2013-02-18 19:15:00,-18.8,-23.0,30.30,West,264,0.0,0.0,80,0.00,,,0.00,weatherlink.com 1.10,2013-02-19 04:15:00,
2013-02-18 19:30:00,-18.7,-23.0,30.29,West,264,0.0,0.0,81,0.00,,,0.00,weatherlink.com 1.10,2013-02-19 04:30:00,
2013-02-18 19:45:00,-18.3,-22.0,30.29,West,264,0.0,0.0,81,0.00,,,0.00,weatherlink.com 1.10,2013-02-19 04:45:00,
2013-02-18 20:00:00,-18.9,-24.0,30.28,West,264,0.0,0.0,79,0.00,,,0.00,weatherlink.com 1.10,2013-02-19 05:00:00,
2013-02-18 20:15:00,-18.9,-24.0,30.28,West,264,0.0,0.0,78,0.00,,,0.00,weatherlink.com 1.10,2013-02-19 05:15:00,
2013-02-18 20:30:00,-19.1,-24.0,30.27,West,265,0.0,0.0,78,0.00,,,0.00,weatherlink.com 1.10,2013-02-19 05:30:00,
2013-02-18 20:45:00,-19.1,-24.0,30.26,West,264,0.0,0.0,78,0.00,,,0.00,weatherlink.com 1.10,2013-02-19 05:45:00,
2013-02-18 21:00:00,-19.6,-24.0,30.26,West,264,0.0,0.0,78,0.00,,,0.00,weatherlink.com 1.10,2013-02-19 06:00:00,
2013-02-18 21:15:00,-19.6,-24.0,30.25,West,264,0.0,0.0,79,0.00,,,0.00,weatherlink.com 1.10,2013-02-19 06:15:00,
2013-02-18 21:30:00,-19.4,-24.0,30.25,West,266,0.0,0.0,78,0.00,,,0.00,weatherlink.com 1.10,2013-02-19 06:30:00,
2013-02-18 21:45:00,-19.8,-25.0,30.25,West,266,0.0,0.0,78,0.00,,,0.00,weatherlink.com 1.10,2013-02-19 06:45:00,
2013-02-18 22:00:00,-19.7,-25.0,30.26,West,266,0.0,0.0,78,0.00,,,0.00,weatherlink.com 1.10,2013-02-19 07:00:00,
2013-02-18 22:16:00,-20.1,-25.0,30.26,West,266,0.0,0.0,78,0.00,,,0.00,weatherlink.com 1.10,2013-02-19 07:16:00,
2013-02-18 22:31:00,-20.4,-25.0,30.26,West,266,0.0,0.0,78,0.00,,,0.00,weatherlink.com 1.10,2013-02-19 07:31:00,
2013-02-18 22:46:00,-20.7,-26.0,30.26,West,266,0.0,0.0,78,0.00,,,0.00,weatherlink.com 1.10,2013-02-19 07:46:00,
2013-02-18 23:01:00,-20.8,-26.0,30.25,West,266,0.0,0.0,78,0.00,,,0.00,weatherlink.com 1.10,2013-02-19 08:01:00,
2013-02-18 23:15:00,-20.7,-26.0,30.25,West,266,0.0,0.0,78,0.00,,,0.00,weatherlink.com 1.10,2013-02-19 08:15:00,
2013-02-18 23:31:00,-20.9,-26.0,30.23,West,266,0.0,0.0,78,0.00,,,0.00,weatherlink.com 1.10,2013-02-19 08:31:00,
2013-02-18 23:46:00,-21.0,-26.0,30.23,West,266,0.0,0.0,77,0.00,,,0.00,weatherlink.com 1.10,2013-02-19 08:46:00,